TimePST,TemperatureF,Dew PointF,Humidity,Sea Level PressureIn,VisibilityMPH,Wind Direction,Wind SpeedMPH,Gust SpeedMPH,PrecipitationIn,Events,Conditions,WindDirDegrees,DateUTC
12:53 AM,43.0,37.0,80,29.81,9.0,Calm,Calm,-,N/A,,Clear,0,2013-11-16 08:53:00
1:53 AM,41.0,36.0,82,29.79,9.0,Calm,Calm,-,N/A,,Clear,0,2013-11-16 09:53:00
2:53 AM,39.9,34.0,79,29.79,9.0,Calm,Calm,-,N/A,,Clear,0,2013-11-16 10:53:00
3:53 AM,39.9,36.0,86,29.80,6.0,ESE,3.5,-,N/A,,Clear,120,2013-11-16 11:53:00
4:53 AM,39.0,36.0,89,29.80,6.0,Calm,Calm,-,N/A,,Clear,0,2013-11-16 12:53:00
5:53 AM,39.0,36.0,89,29.82,6.0,Calm,Calm,-,N/A,,Clear,0,2013-11-16 13:53:00
6:53 AM,37.9,35.1,89,29.84,5.0,ESE,3.5,-,N/A,,Clear,110,2013-11-16 14:53:00
7:53 AM,43.0,37.0,80,29.86,6.0,SE,3.5,-,N/A,,Haze,140,2013-11-16 15:53:00
8:53 AM,48.9,37.9,66,29.87,7.0,SSE,4.6,-,N/A,,Clear,150,2013-11-16 16:53:00
9:53 AM,54.0,37.9,55,29.87,8.0,Variable,3.5,-,N/A,,Clear,0,2013-11-16 17:53:00
10:53 AM,59.0,39.0,48,29.86,8.0,ESE,3.5,-,N/A,,Clear,110,2013-11-16 18:53:00
11:53 AM,63.0,39.0,41,29.83,9.0,Variable,3.5,-,N/A,,Clear,0,2013-11-16 19:53:00
12:53 PM,66.0,36.0,33,29.82,9.0,Variable,5.8,-,N/A,,Clear,0,2013-11-16 20:53:00
1:53 PM,66.9,36.0,32,29.80,10.0,ESE,4.6,-,N/A,,Clear,110,2013-11-16 21:53:00
2:53 PM,66.9,36.0,32,29.80,9.0,SE,4.6,-,N/A,,Clear,130,2013-11-16 22:53:00
3:53 PM,68.0,36.0,31,29.81,9.0,ENE,3.5,-,N/A,,Clear,60,2013-11-16 23:53:00
4:53 PM,63.0,37.9,40,29.82,8.0,NNE,4.6,-,N/A,,Clear,20,2013-11-17 00:53:00
5:53 PM,57.9,37.0,46,29.84,8.0,Calm,Calm,-,N/A,,Clear,0,2013-11-17 01:53:00
6:53 PM,54.0,37.0,53,29.86,8.0,Calm,Calm,-,N/A,,Clear,0,2013-11-17 02:53:00
7:53 PM,57.9,37.9,47,29.89,9.0,NW,8.1,-,N/A,,Clear,310,2013-11-17 03:53:00
8:53 PM,53.1,37.9,57,29.91,7.0,NNW,6.9,-,N/A,,Clear,330,2013-11-17 04:53:00
9:53 PM,52.0,37.9,59,29.91,7.0,NNW,6.9,-,N/A,,Clear,330,2013-11-17 05:53:00
10:53 PM,51.1,39.0,63,29.92,10.0,NW,8.1,-,N/A,,Clear,310,2013-11-17 06:53:00
11:53 PM,48.9,39.9,71,29.94,7.0,NNW,5.8,-,N/A,,Clear,330,2013-11-17 07:53:00